Showing default

LEMUR 2 PETERG, 42841

Orbit data source: Space-Track

LEMUR 2 PETERG, 42841 is a payload satellite owned by Spire (US) in SSO that was launched on Fri, 14 Jul 2017 UTC via a SOYUZ-2-1A launch vehicle from the Tyuratam Missile And Space Complex (TTMTR). Payload-class satellites include a variety of spacecraft equipped with specific instruments for various scientific and technological missions. These include communications satellites like Starlink; space stations such as the ISS; scientific satellites like the Hubble; Earth observation satellites from companies like Planet Labs, Umbra, and HawkEye 360; GPS; miniature CubeSats for education and research; and military/defense satellites.

Loading next visibility...
Identifier
42841, 2017-042S
Orbit
SSO
Country
Flag of USUS
Related business
Manufacturer
Spire/Glasgow
Mission
Operational Commercial Com/MetRO
Bus & Motor
CUBESAT 3U, Unknown motor
Mass
4 kg wet, 4 kg dry
Launch date (UTC)
2017-07-14 (8 years ago)
Launch vehicle
SOYUZ-2-1A
Launch site
Tyuratam Missile And Space Complex (TTMTR)
Object type
Payload
Rocket body
Debris
Shape & HBR
Box, 0.5 m
Radar Cross Section
0.093 m², Small (<0.1 m²)

Expand to show TLE details & history
Last TLE update: 7 hours ago

TLE from 7 hours ago
0 LEMUR 2 PETERG
1 42841U 17042S   25355.46905187  .00017651  00000-0  69420-3 0  9997
2 42841  97.3913 176.2839 0003098 252.0906 107.9995 15.25712004461269
Epoch: 2025-12-21T11:15Z
TLE epoch observation values (Epoch: 2025-12-21T11:15:26.081Z)
Latitude
0.00001°
Longitude
-82.85583°
Altitude
492.405 km
Speed
7.618 km/s
True Right ascension
11h 45m 08s
True Declination
0° 00' 00"
Sunlit
Object was in daylight at epoch
Visualization orbit readout
Latitude
Unknown
Longitude
Unknown
Altitude
Unknown
Speed
Unknown
Apparent Right ascension
Unknown
Apparent Declination
Unknown
Sunlit
N/A
Visualization observer readout
Local Sidereal Time
17:34:49
Azimuth
Unknown
Elevation
Unknown
Doppler factor
Unknown
Orbital elements
Apogee altitude
487.732 km
Perigee altitude
483.479 km
Semi-major axis
6,863.743 km
Eccentricity
0.00031
Inclination
97.3913°
RAAN
176.2839°
Arg. of periapsis
252.0906°
True anomaly
108.03326°
Mean anomaly
107.9995°
Eccentric anomaly
108.01638°
Mean motion
3.81682 °/min
Orbital period
94.32 mins
BSTAR
0.0006942
Loading maneuver chart data...
Computing Atmospheric mass density...
Loading historical data...
Loading historical data...
Loading historical data...
Loading historical data...
Loading historical data...
Loading historical data...
Loading historical data...

Documentation

Showing up to 5 results
|